This demonstration page uses our WeatherBlox Daily Observations layout. Learn more.

40.92945, -100.16068

Hourly Observations for July 8, 2015

Temp ( °F °C ) Dew Point ( °F °C ) Humidity (%) Winds ( mph kmh ) Pressure ( in mb ) Visibility ( mi km ) Precip ( " mm )
12:15 am 00:15 Clear 60 15.7 55 12.5 81 81 SE 5 7 30.06 1018 7 11.26538 N/A
12:35 am 00:35 Clear 60 15.5 55 12.6 83 83 ESE 6 9 30.06 1018 7 11.26538 N/A
12:55 am 00:55 Clear 60 15.6 55 12.7 83 83 SE 5 7 30.06 1018 7 11.26538 N/A
1:15 am 01:15 Clear 60 15.5 55 12.6 83 83 SE 3 6 30.03 1017 7 11.26538 N/A
1:35 am 01:35 Clear 58 14.7 54 12.2 85 85 SE 5 7 30.03 1017 7 11.26538 N/A
1:55 am 01:55 Clear 58 14.5 54 12 85 85 ESE 6 9 30.03 1017 7 11.26538 N/A
2:15 am 02:15 Clear 58 14.7 54 12 84 84 SE 6 9 30.03 1017 10 16.0934 N/A
2:35 am 02:35 Clear 58 14.4 53 11.6 83 83 SSE 5 7 30.03 1017 10 16.0934 N/A
2:55 am 02:55 Clear 57 14 53 11.5 85 85 SE 5 7 30 1016 7 11.26538 N/A
3:15 am 03:15 Clear 57 14.1 53 11.5 84 84 SSE 3 6 30 1016 10 16.0934 N/A
3:35 am 03:35 Clear 56 13.3 52 10.9 86 86 SE 5 7 30.03 1017 10 16.0934 N/A
3:55 am 03:55 Clear 56 13.3 52 10.9 86 86 SE 3 6 30.03 1017 10 16.0934 N/A
4:15 am 04:15 Clear 56 13.1 51 10.7 86 86 ESE 3 6 30.03 1017 10 16.0934 N/A
4:35 am 04:35 Clear 55 12.6 51 10.5 87 87 SE 3 6 30.03 1017 10 16.0934 N/A
4:55 am 04:55 Clear 55 12.7 51 10.4 86 86 Calm 30.03 1017 10 16.0934 N/A
5:15 am 05:15 Clear 55 12.5 50 10.1 85 85 SSE 3 6 30.03 1017 10 16.0934 N/A
5:35 am 05:35 Clear 53 11.5 49 9.5 88 88 Calm 30.03 1017 10 16.0934 N/A
5:55 am 05:55 Clear 53 11.7 49 9.7 88 88 Calm 30.03 1017 10 16.0934 N/A
6:15 am 06:15 Clear 53 11.6 49 9.6 88 88 SE 5 7 30.03 1017 10 16.0934 N/A
6:35 am 06:35 Sunny 54 12.2 50 10 87 87 SE 5 7 30.03 1017 10 16.0934 N/A
6:55 am 06:55 Sunny 54 12.3 51 10.3 88 88 Calm 30.03 1017 10 16.0934 N/A
7:15 am 07:15 Sunny 56 13.3 51 10.5 83 83 SSE 3 6 30.03 1017 10 16.0934 N/A
7:35 am 07:35 Sunny 58 14.2 52 11 81 81 SSE 3 6 30 1016 10 16.0934 N/A
7:55 am 07:55 Sunny 58 14.5 52 11 80 80 Calm 30 1016 10 16.0934 N/A
8:15 am 08:15 Sunny 59 14.9 52 11.2 79 79 Calm 30 1016 10 16.0934 N/A
8:35 am 08:35 Sunny 60 15.3 52 11.3 77 77 S 3 6 30 1016 10 16.0934 N/A
8:55 am 08:55 Sunny 60 15.8 52 11.3 75 75 S 5 7 30 1016 10 16.0934 N/A
9:15 am 09:15 Sunny 61 16.1 53 11.4 74 74 Calm 30 1016 10 16.0934 N/A
9:35 am 09:35 Sunny 62 16.6 53 11.6 73 73 S 3 6 29.97 1015 10 16.0934 N/A
9:55 am 09:55 Sunny 63 17.4 54 12 71 71 Calm 29.97 1015 10 16.0934 N/A
10:15 am 10:15 Sunny 65 18.1 53 11.8 67 67 Calm 29.97 1015 10 16.0934 N/A
10:35 am 10:35 Sunny 66 18.7 51 10.5 59 59 SW 5 7 29.97 1015 10 16.0934 N/A
10:55 am 10:55 Sunny 66 19 51 10.7 59 59 SSW 6 9 29.97 1015 10 16.0934 N/A
11:15 am 11:15 Sunny 67 19.7 52 11.2 58 58 WSW 3 6 29.97 1015 10 16.0934 N/A
11:35 am 11:35 Sunny 68 20.2 52 11.2 56 56 WNW 3 6 29.97 1015 10 16.0934 N/A
11:55 am 11:55 Partly Cloudy 70 21 52 11.2 54 54 WSW 6 9 29.94 1014 10 16.0934 N/A
12:15 pm 12:15 Mostly Cloudy 70 20.9 52 11.3 54 54 Calm 29.94 1014 10 16.0934 N/A
12:35 pm 12:35 Cloudy 69 20.6 52 11.1 55 55 W 3 6 29.94 1014 10 16.0934 N/A
12:55 pm 12:55 Cloudy 71 21.5 53 11.6 53 53 W 6 9 29.94 1014 10 16.0934 N/A
1:15 pm 13:15 Cloudy with Haze 71 21.6 53 11.4 52 52 WNW 6 9 29.94 1014 2.5 4.02335 N/A
1:35 pm 13:35 Cloudy 71 21.7 53 11.7 53 53 Calm 29.94 1014 10 16.0934 N/A
1:55 pm 13:55 Cloudy 72 22 56 13.1 57 57 NW 8 13 29.94 1014 10 16.0934 N/A
2:15 pm 14:15 Cloudy 70 21.1 55 12.9 60 60 NNW 10 17 29.94 1014 10 16.0934 N/A
2:35 pm 14:35 Mostly Cloudy with Light Rain 69 20.8 56 13.6 64 64 NNW 8 13 29.94 1014 10 16.0934 N/A
2:55 pm 14:55 Mostly Cloudy 70 21 55 13 60 60 NNW 7 11 29.91 1013 10 16.0934 N/A
3:15 pm 15:15 Cloudy 70 20.9 54 12 57 57 NNW 9 15 29.91 1013 10 16.0934 N/A
3:35 pm 15:35 Cloudy with Light Rain 69 20.3 56 13.5 65 65 NNW 9 15 29.97 1015 10 16.0934 N/A
3:55 pm 15:55 Cloudy with Rain 67 19.3 59 14.8 75 75 NNW 8 13 29.97 1015 10 16.0934 N/A
4:15 pm 16:15 Cloudy with Light Rain 66 18.8 60 15.3 80 80 NNW 8 13 29.97 1015 10 16.0934 N/A
4:35 pm 16:35 Cloudy with Light Rain 66 18.7 60 15.5 82 82 N 7 11 29.97 1015 10 16.0934 0.01 0.254
4:55 pm 16:55 Cloudy 66 18.7 59 15.2 80 80 N 8 13 29.97 1015 10 16.0934 0.01 0.254
5:15 pm 17:15 Cloudy 66 18.7 59 15.1 80 80 N 10 17 29.97 1015 10 16.0934 N/A
5:35 pm 17:35 Cloudy 67 19.5 59 15.2 76 76 N 8 13 29.97 1015 10 16.0934 N/A
5:55 pm 17:55 Cloudy 67 19.7 57 13.7 68 68 N 8 13 29.97 1015 10 16.0934 N/A
6:15 pm 18:15 Mostly Cloudy 69 20.3 56 13.3 64 64 N 8 13 29.97 1015 10 16.0934 N/A
6:35 pm 18:35 Mostly Cloudy 68 19.9 57 14.1 69 69 N 12 19 29.97 1015 10 16.0934 N/A
6:55 pm 18:55 Cloudy 67 19.5 56 13.3 68 68 N 9 15 29.97 1015 10 16.0934 0 0
7:15 pm 19:15 Mostly Cloudy 67 19.3 56 13.5 69 69 N 10 17 29.97 1015 10 16.0934 N/A
7:35 pm 19:35 Cloudy 66 19 56 13.5 71 71 N 9 15 29.97 1015 10 16.0934 N/A
7:55 pm 19:55 Mostly Cloudy 66 18.7 57 13.8 73 73 N 7 11 29.97 1015 10 16.0934 N/A
8:15 pm 20:15 Mostly Cloudy 65 18.5 58 14.5 78 78 N 6 9 29.97 1015 10 16.0934 N/A
8:35 pm 20:35 Cloudy 65 18.1 57 14.1 78 78 N 3 6 29.97 1015 10 16.0934 N/A
8:55 pm 20:55 Cloudy 64 18 58 14.3 79 79 Calm 29.97 1015 10 16.0934 N/A
9:15 pm 21:15 Cloudy 64 17.7 58 14.5 82 82 Calm 29.97 1015 10 16.0934 N/A
9:35 pm 21:35 Cloudy 64 17.5 58 14.6 83 83 Calm 29.97 1015 10 16.0934 N/A
9:55 pm 21:55 Cloudy 64 17.5 59 14.9 85 85 Calm 29.97 1015 10 16.0934 N/A
10:15 pm 22:15 Cloudy 64 17.5 58 14.7 84 84 Calm 29.97 1015 10 16.0934 N/A
10:35 pm 22:35 Cloudy 64 17.5 59 14.9 85 85 Calm 29.97 1015 10 16.0934 N/A
10:55 pm 22:55 Cloudy 63 17.3 59 15.1 87 87 Calm 29.97 1015 10 16.0934 N/A
11:15 pm 23:15 Mostly Cloudy 63 17 59 15.1 89 89 Calm 29.97 1015 10 16.0934 N/A
11:35 pm 23:35 Clear 61 16.3 59 14.9 91 91 Calm 30 1016 7 11.26538 N/A
11:55 pm 23:55 Mostly Cloudy 60 15.8 58 14.6 93 93 Calm 30 1016 7 11.26538 N/A

Powered by AerisWeather